Location: Alexandria
(38.8050°N, 77.0470°W)
Time: 22:17:12

Hubble Space Telescope - Pass Details

Date: 12 March 2018
Orbit: 537 x 541 km, 28.5° (Epoch: 17 March)

Event Time Altitude Azimuth Distance (km) Brightness Sun altitude
Rises 20:19:21 0° 229° (SW) 2,674 5.0 -13.9°
Reaches altitude 10° 20:22:19 10° 208° (SSW) 1,784 3.7 -14.4°
Maximum altitude 20:24:51 16° 169° (S) 1,448 2.8 -14.9°
Enters shadow 20:26:01 14° 149° (SSE) 1,526 2.7 -15.1°
